Diboll, TX

12:34 PM CST on February 11, 2016 (GMT -0600)
Angelina County

Weather History for KLFK - February, 2014

Change the Weather History Date:

Thursday, February 13, 2014

  Actual Average Record
Temperature  
Mean Temperature 46 °F 52 °F  
Max Temperature 64 °F 63 °F 84 °F (1911)
Min Temperature 28 °F 41 °F 18 °F (1958)
Degree Days  
Heating Degree Days 19 13  
Month to date heating degree days 256 183  
Since 1 July heating degree days 1689 1463  
Cooling Degree Days 0 0  
Month to date cooling degree days 1 0  
Year to date cooling degree days 1 8  
Moisture  
Dew Point 33 °F    
Average Humidity 64    
Maximum Humidity 92    
Minimum Humidity 36    
Precipitation  
Precipitation 0.00 in 0.14 in 0.68 in (1927)
Month to date precipitation 1.01 1.82  
Year to date precipitation 2.21 6.00  
Snow  
Snow 0.00 in - - ()
Month to date snowfall T  
Since 1 July snowfall 3.2  
Snow Depth 0.00 in    
Sea Level Pressure  
Sea Level Pressure 30.03 in    
Wind  
Wind Speed 2 mph (SSW)    
Max Wind Speed 13 mph    
Max Gust Speed 15 mph    
Visibility 10 miles    
Events      
T = Trace of Precipitation, MM = Missing Value Source: NWS Daily Summary

Daily Weather History Graph

Daily Weather History Graph

Search for Another Location

Airport or City:

Trip Planner

Search our weather history database for the weather conditions in past years. The results will help you decide how hot, cold, wet, or windy it might be!

Date:

Astronomy

Feb. 13, 2014 Rise Set
Actual Time 7:02 AM CST 6:04 PM CST
Civil Twilight 6:37 AM CST 6:29 PM CST
Nautical Twilight 6:08 AM CST 6:58 PM CST
Astronomical Twilight 5:40 AM CST 7:26 PM CST
Moon 5:13 PM CST (2/13) 5:54 AM CST (2/13)
Length of Visible Light 11h 52m
Length of Day
11h 02m
Waxing Gibbous, 99% of the Moon is Illuminated
Feb 13
Waxing Gibbous
Feb 14
Full
Feb 22
Last Quarter
Mar 1
New
Mar 8
First Quarter

Hourly Weather History & Observations

Time (CST) Temp. Windchill Dew Point Humidity Pressure Visibility Wind Dir Wind Speed Gust Speed Precip Events Conditions
12:53 AM 32.0 °F - 28.0 °F 85% 30.08 in 10.0 mi Calm Calm - N/A   Clear
1:53 AM 30.9 °F - 27.0 °F 85% 30.07 in 10.0 mi Calm Calm - N/A   Clear
2:53 AM 30.9 °F - 27.0 °F 85% 30.06 in 9.0 mi Calm Calm - N/A   Clear
3:53 AM 30.9 °F - 28.0 °F 89% 30.06 in 9.0 mi Calm Calm - N/A   Clear
4:53 AM 30.9 °F - 26.1 °F 82% 30.06 in 9.0 mi Calm Calm - N/A   Clear
5:53 AM 28.0 °F - 24.1 °F 85% 30.06 in 10.0 mi Calm Calm - N/A   Clear
6:53 AM 28.9 °F - 25.0 °F 85% 30.09 in 10.0 mi Calm Calm - N/A   Clear
7:53 AM 30.9 °F - 27.0 °F 85% 30.09 in 9.0 mi Calm Calm - N/A   Clear
8:53 AM 39.0 °F - 33.1 °F 79% 30.10 in 7.0 mi Calm Calm - N/A   Clear
9:53 AM 46.9 °F - 36.0 °F 66% 30.10 in 5.0 mi SSW 5.8 mph - N/A   Haze
10:53 AM 52.0 °F - 33.1 °F 49% 30.10 in 10.0 mi Variable 3.5 mph - N/A   Clear
11:53 AM 55.9 °F - 33.1 °F 42% 30.08 in 10.0 mi West 4.6 mph - N/A   Clear
12:53 PM 59.0 °F - 35.1 °F 41% 30.03 in 10.0 mi SW 5.8 mph - 0.00 in   Clear
1:53 PM 60.1 °F - 36.0 °F 41% 29.99 in 10.0 mi WSW 4.6 mph - 0.00 in   Clear
2:53 PM 62.1 °F - 36.0 °F 38% 29.97 in 10.0 mi WSW 5.8 mph - 0.00 in   Clear
3:53 PM 63.0 °F - 36.0 °F 37% 29.96 in 10.0 mi Variable 4.6 mph - N/A   Clear
4:53 PM 62.1 °F - 36.0 °F 38% 29.95 in 10.0 mi SW 5.8 mph - N/A   Clear
5:53 PM 57.9 °F - 37.0 °F 46% 29.95 in 10.0 mi South 5.8 mph - N/A   Clear
6:53 PM 50.0 °F - 37.9 °F 63% 29.96 in 10.0 mi Calm Calm - N/A   Clear
7:53 PM 46.0 °F - 39.0 °F 76% 29.96 in 10.0 mi Calm Calm - N/A   Clear
8:53 PM 42.1 °F 39.2 °F 37.0 °F 82% 29.96 in 10.0 mi SE 4.6 mph - N/A   Clear
9:53 PM 46.9 °F - 37.9 °F 71% 29.97 in 10.0 mi South 3.5 mph - N/A   Clear
10:53 PM 45.0 °F - 37.9 °F 76% 29.98 in 10.0 mi Calm Calm - N/A   Clear
11:53 PM 39.0 °F 36.8 °F 35.1 °F 86% 29.97 in 9.0 mi South 3.5 mph - N/A   Clear